CMS-03 (GSAT-7R)

Last updated on Sun Dec 14 2025 00:02:54 GMT+0000 (Coordinated Universal Time)

1 66311U 25249B 25347.15076133 -.00000245 00000+0 00000+0 0 9996 2 66311 0.1369 272.5374 0004117 182.6580 134.7026 1.00272709 484
UTC large
Height (km)
Speed (km/s)
/
Latitude / Longitude
Inclination (degrees)
Orbital Period (minutes)
Azimuth
Elevation
Range (km)
Doppler Factor

Next 0 passes for location: London (51.5072 / 0.1276)

Sorry there are no passes over London.